Satellite-Ground Cal/Val Region Overpasses Predictions

Prediction of Satellite NPP Overpassing Cal/Val Region: PacNW

Region Location: (Latitude: 10.00, Longitude: 139.50) to (Latitude: 22.70, Longitude: 165.60).

Table of predicted overpasses for the next 14.0 days since TLE Epoch: 11/29/2013
Interval Starting Time Starting Location Ending Time Ending Location
1 11/29/2013 16:03:34 ( 22.67, 144.45) 11/29/2013 16:07:09 ( 10.05, 141.44)
2 11/30/2013 03:12:39 ( 10.03, 151.95) 11/30/2013 03:16:14 ( 22.65, 148.94)
3 11/30/2013 15:44:33 ( 22.70, 149.21) 11/30/2013 15:48:09 ( 10.02, 146.19)
4 12/01/2013 02:53:39 ( 10.00, 156.71) 12/01/2013 02:57:15 ( 22.68, 153.69)
5 12/01/2013 15:25:34 ( 22.67, 153.96) 12/01/2013 15:29:09 ( 10.05, 150.95)
6 12/02/2013 02:34:39 ( 10.03, 161.46) 12/02/2013 02:38:14 ( 22.65, 158.45)
7 12/02/2013 15:06:33 ( 22.69, 158.72) 12/02/2013 15:10:09 ( 10.02, 155.70)
8 12/03/2013 02:16:25 ( 12.71, 165.60) 12/03/2013 02:19:15 ( 22.68, 163.19)
9 12/03/2013 03:57:09 ( 10.00, 140.85) 12/03/2013 03:58:47 ( 15.76, 139.51)
10 12/03/2013 14:47:34 ( 22.66, 163.47) 12/03/2013 14:51:09 ( 10.04, 160.46)
11 12/04/2013 03:38:09 ( 10.04, 145.59) 12/04/2013 03:41:44 ( 22.66, 142.58)
12 12/04/2013 14:31:40 ( 11.71, 165.60) 12/04/2013 14:32:09 ( 10.01, 165.20)
13 12/04/2013 16:10:03 ( 22.69, 142.86) 12/04/2013 16:13:39 ( 10.01, 139.83)
14 12/05/2013 03:19:09 ( 10.01, 150.35) 12/05/2013 03:22:45 ( 22.69, 147.33)
15 12/05/2013 15:51:04 ( 22.65, 147.60) 12/05/2013 15:54:39 ( 10.03, 144.59)
16 12/06/2013 03:00:10 ( 10.05, 155.10) 12/06/2013 03:03:45 ( 22.67, 152.09)
17 12/06/2013 15:32:03 ( 22.67, 152.36) 12/06/2013 15:35:38 ( 10.06, 149.35)
18 12/07/2013 02:41:09 ( 10.03, 159.86) 12/07/2013 02:44:44 ( 22.65, 156.85)
19 12/07/2013 15:13:03 ( 22.70, 157.12) 12/07/2013 15:16:39 ( 10.02, 154.10)
20 12/08/2013 02:22:09 ( 10.01, 164.62) 12/08/2013 02:25:45 ( 22.69, 161.59)
21 12/08/2013 14:54:03 ( 22.66, 161.87) 12/08/2013 14:57:38 ( 10.04, 158.85)
22 12/09/2013 03:44:39 ( 10.05, 143.99) 12/09/2013 03:48:14 ( 22.67, 140.98)
23
